Tracking 29892 objects as of 21-Nov-2024
HD Live streaming from Space Station
objects crossing your sky now

TITAN 3C TRANSTAGE DEB

Track TITAN 3C TRANSTAGE DEB now!


NORAD ID: 43455
Int'l Code: 1969-013N
Perigee: 36,381.6 km
Apogee: 38,898.0 km
Inclination: 1.4 °
Period: 1,531.4 minutes
Semi major axis: 44010 km
RCS: Unknown
Launch date: February 9, 1969
Source: United States (US)
Launch site: AIR FORCE EASTERN TEST RANGE (AFETR)

Note: This is SATELLITE DEBRIS
Your satellite tracking list
Your tracking list is empty




NASA's NSSDC Master Catalog

Two Line Element Set (TLE):
1 43455U 69013N   24325.28676259 -.00000124  00000-0  00000+0 0  9998
2 43455   1.4024 208.7927 0285885  16.5088 345.3116  0.94029341 22945
Source of the keplerian elements: AFSPC